Location: Kellogg
(38.0159°N, 90.0546°W)
Time: 00:06:00
(UTC+00:00)

Courier 1B Rocket - All Passes

Search period start: 12 September 2024 00:00
Search period end: 22 September 2024 00:00
Orbit: 920 x 1201 km, 28.2° (Epoch: 11 September)

Date Brightness Start Highest point End Pass type
(mag) Time Alt. Az. Time Alt. Az. Time Alt. Az.
12 Sep - 01:26:24 10° WSW 01:33:11 40° S 01:40:18 10° ESE visible
12 Sep - 03:19:57 10° WSW 03:26:18 29° SSW 03:32:45 10° SE visible
12 Sep - 05:16:04 10° SW 05:19:04 12° SSW 05:22:04 10° S night (unlit)
12 Sep - 20:44:10 10° S 20:46:33 12° SSE 20:48:58 10° SE daylight
12 Sep - 22:33:15 10° SW 22:39:03 29° SSE 22:45:10 10° ESE daylight
13 Sep - 00:25:23 10° WSW 00:32:01 39° S 00:39:00 10° ESE visible
13 Sep - 02:18:33 10° WSW 02:25:07 33° SSW 02:31:54 10° SE visible
13 Sep - 04:13:14 10° WSW 04:18:01 18° SSW 04:22:50 10° SSE visible
13 Sep - 21:32:59 10° SSW 21:38:04 23° SSE 21:43:24 10° ESE daylight
13 Sep - 23:24:31 10° WSW 23:30:52 37° S 23:37:36 10° ESE daylight
14 Sep - 01:17:21 10° WSW 01:23:56 37° S 01:30:51 10° SE visible
14 Sep - 03:11:17 10° WSW 03:16:56 23° SSW 03:22:42 10° SSE visible
14 Sep - 20:33:10 10° SSW 20:37:10 17° SSE 20:41:19 10° ESE daylight
14 Sep - 22:23:48 10° SW 22:29:47 33° SSE 22:36:08 10° ESE daylight
15 Sep - 00:16:17 10° WSW 00:22:46 38° S 00:29:38 10° ESE daylight
15 Sep - 02:09:43 10° WSW 02:15:48 28° SSW 02:22:06 10° SE visible
15 Sep - 04:05:51 10° SW 04:08:35 12° SSW 04:11:20 10° S visible
15 Sep - 19:34:30 10° SSE 19:36:20 11° SSE 19:38:10 10° SE daylight
15 Sep - 21:23:18 10° SW 21:28:46 27° SSE 21:34:33 10° ESE daylight
15 Sep - 23:15:21 10° WSW 23:21:38 38° S 23:28:20 10° ESE daylight
16 Sep - 01:08:25 10° WSW 01:14:39 32° SSW 01:21:13 10° SE visible
16 Sep - 03:03:02 10° WSW 03:07:32 17° SSW 03:12:09 10° SSE visible
16 Sep - 20:23:05 10° SSW 20:27:51 22° SSE 20:32:50 10° ESE daylight
16 Sep - 22:14:33 10° WSW 22:20:33 36° S 22:26:57 10° ESE daylight
17 Sep - 00:07:18 10° WSW 00:13:32 35° S 00:20:10 10° SE daylight
17 Sep - 02:01:08 10° WSW 02:06:28 22° SSW 02:11:59 10° SSE visible
17 Sep - 19:23:17 10° S 19:27:00 16° SSE 19:30:47 10° ESE daylight
17 Sep - 21:13:52 10° SW 21:19:32 32° SSE 21:25:32 10° ESE daylight
17 Sep - 23:06:18 10° WSW 23:12:26 37° S 23:18:58 10° ESE daylight
18 Sep - 00:59:39 10° WSW 01:05:23 26° SSW 01:11:23 10° SE visible
18 Sep - 02:56:00 10° SW 02:58:08 11° SSW 03:00:18 10° SSW visible
18 Sep - 18:24:48 10° SSE 18:26:10 11° SSE 18:27:34 10° SE daylight
18 Sep - 20:13:23 10° SW 20:18:35 26° SSE 20:24:01 10° ESE daylight
18 Sep - 22:05:24 10° WSW 22:11:22 37° S 22:17:43 10° ESE daylight
18 Sep - 23:58:25 10° WSW 00:04:17 30° SSW 00:10:32 10° SE daylight
19 Sep - 01:53:02 10° WSW 01:57:07 16° SSW 02:01:19 10° S visible
19 Sep - 19:13:09 10° SSW 19:17:43 21° SSE 19:22:24 10° ESE daylight
19 Sep - 21:04:38 10° WSW 21:10:21 34° S 21:16:25 10° ESE daylight
19 Sep - 22:57:21 10° WSW 23:03:14 34° S 23:09:31 10° SE daylight
20 Sep - 00:51:10 10° WSW 00:56:05 20° SSW 01:01:13 10° SSE visible
20 Sep - 18:13:20 10° S 18:16:52 16° SSE 18:20:27 10° ESE daylight
20 Sep - 20:03:57 10° SW 20:09:24 30° SSE 20:15:04 10° ESE daylight
20 Sep - 21:56:23 10° WSW 22:02:12 35° S 22:08:22 10° ESE daylight
20 Sep - 23:49:43 10° WSW 23:55:03 25° SSW 00:00:40 10° SE daylight
21 Sep - 01:46:54 10° SW 01:47:45 10° SSW 01:48:37 10° SSW visible
21 Sep - 17:14:47 10° SSE 17:16:03 11° SSE 17:17:20 10° SE daylight
21 Sep - 19:03:27 10° SW 19:08:29 26° SSE 19:13:40 10° ESE daylight
21 Sep - 20:55:30 10° WSW 21:01:12 35° S 21:07:12 10° ESE daylight
21 Sep - 22:48:30 10° WSW 22:54:02 29° SSW 22:59:53 10° SE daylight
